W5TTY Weather Reports


time (UTC)temp
C
wind
direction
speed
KPH
gust
KPH
rain 1hr
cm
rain 24hr
cm
rain mn
cm
humidity
%
barometer
mb
20260504033321 17 188 4.8 8.0 0.00 0.00 0.00 60 1017.4
20260504032853 17 191 3.2 8.0 0.00 0.00 0.00 60 1017.2
20260504032336 17 182 3.2 6.4 0.00 0.00 0.00 60 1017.3
20260504031842 17 188 3.2 8.0 0.00 0.00 0.00 59 1017.3
20260504031327 17 192 4.8 8.0 0.00 0.00 0.00 59 1017.3
20260504030832 17 189 4.8 6.4 0.00 0.00 0.00 59 1017.3
20260504030338 17 185 4.8 8.0 0.00 0.00 0.00 59 1017.3
20260504025823 17 187 3.2 8.0 0.00 0.00 0.00 59 1017.3
20260504025328 17 189 4.8 8.0 0.00 0.00 0.00 59 1017.3
20260504024851 17 182 3.2 8.0 0.00 0.00 0.00 58 1017.4
20260504024335 17 182 3.2 8.0 0.00 0.00 0.00 58 1017.3
20260504023839 18 174 4.8 8.0 0.00 0.00 0.00 58 1017.2
20260504023349 18 169 4.8 9.7 0.00 0.00 0.00 58 1017.2
20260504022834 18 177 3.2 8.0 0.00 0.00 0.00 58 1017.1
20260504022336 18 172 4.8 8.0 0.00 0.00 0.00 58 1017.0
20260504021823 18 171 4.8 8.0 0.00 0.00 0.00 58 1017.0
20260504021327 18 182 3.2 8.0 0.00 0.00 0.00 58 1017.0
20260504020831 18 192 4.8 9.7 0.00 0.00 0.00 57 1017.0
20260504020339 18 161 4.8 9.7 0.00 0.00 0.00 57 1017.0
20260504015819 19 171 4.8 8.0 0.00 0.00 0.00 57 1016.9
20260504015331 19 170 3.2 8.0 0.00 0.00 0.00 57 1016.9
20260504014840 20 173 3.2 6.4 0.00 0.00 0.00 57 1016.9
20260504014322 20 160 3.2 8.0 0.00 0.00 0.00 57 1016.9
20260504013824 20 174 3.2 6.4 0.00 0.00 0.00 57 1016.9
20260504013328 20 149 3.2 8.0 0.00 0.00 0.00 57 1016.8
20260504012846 20 175 0.0 6.4 0.00 0.00 0.00 57 1016.8
20260504012347 21 170 3.2 9.7 0.00 0.00 0.00 57 1016.8
20260504011827 21 159 4.8 9.7 0.00 0.00 0.00 57 1016.7
20260504011334 21 155 4.8 11.3 0.00 0.00 0.00 57 1016.7
20260504010843 21 172 4.8 11.3 0.00 0.00 0.00 57 1016.7
20260504010348 22 182 3.2 8.0 0.00 0.00 0.00 57 1016.9
20260504005840 22 183 4.8 6.4 0.00 0.00 0.00 58 1016.9
20260504005324 22 188 3.2 8.0 0.00 0.00 0.00 58 1016.8
20260504004824 22 188 1.6 8.0 0.00 0.00 0.00 58 1016.6
20260504004352 22 174 4.8 8.0 0.00 0.00 0.00 58 1016.7
20260504003858 23 173 3.2 9.7 0.00 0.00 0.00 58 1016.8
20260504003323 23 171 4.8 9.7 0.00 0.00 0.00 58 1016.9
20260504002832 23 186 3.2 6.4 0.00 0.00 0.00 59 1016.8
20260504002318 23 186 3.2 6.4 0.00 0.00 0.00 59 1016.9
20260504001822 23 184 4.8 11.3 0.00 0.00 0.00 59 1016.9
20260504001325 23 150 4.8 14.5 0.00 0.00 0.00 59 1017.0
20260504000837 24 183 4.8 14.5 0.00 0.00 0.00 60 1017.0
20260504000342 24 171 4.8 12.9 0.00 0.00 0.00 60 1017.0
20260503235820 24 197 6.4 11.3 0.00 0.00 0.00 60 1017.1
20260503235330 24 185 3.2 12.9 0.00 0.00 0.00 60 1017.2
20260503234836 25 219 8.0 12.9 0.00 0.00 0.00 60 1017.2
20260503234320 25 201 4.8 14.5 0.00 0.00 0.00 61 1017.3
20260503233828 25 204 4.8 19.3 0.00 0.00 0.00 61 1017.3
20260503232823 25 229 9.7 17.7 0.00 0.00 0.00 62 1017.3
20260503232327 25 166 6.4 14.5 0.00 0.00 0.00 62 1017.3
20260503231826 25 188 6.4 20.9 0.00 0.00 0.00 62 1017.3
20260503231333 25 136 9.7 20.9 0.00 0.00 0.00 62 1017.3
20260503230819 25 172 6.4 16.1 0.00 0.00 0.00 62 1017.2
20260503230322 25 173 6.4 16.1 0.00 0.00 0.00 63 1017.3
20260503225856 25 142 4.8 16.1 0.00 0.00 0.00 63 1017.3
20260503225322 25 171 8.0 17.7 0.00 0.00 0.00 63 1017.4
20260503224825 25 137 6.4 17.7 0.00 0.00 0.00 63 1017.4
20260503224328 25 152 9.7 20.9 0.00 0.00 0.00 63 1017.4
20260503223859 25 150 6.4 20.9 0.00 0.00 0.00 63 1017.5
20260503223345 25 128 4.8 17.7 0.00 0.00 0.00 64 1017.5
20260503222829 25 144 4.8 14.5 0.00 0.00 0.00 64 1017.4
20260503222333 25 136 4.8 14.5 0.00 0.00 0.00 65 1017.6
20260503221821 25 146 6.4 16.1 0.00 0.00 0.00 65 1017.7
20260503221349 25 121 4.8 16.1 0.00 0.00 0.00 66 1017.6
20260503220835 25 130 4.8 19.3 0.00 0.00 0.00 66 1017.6
20260503220343 25 127 9.7 19.3 0.00 0.00 0.00 66 1017.8
20260503215828 25 169 4.8 19.3 0.00 0.00 0.00 66 1017.9
20260503215353 25 193 9.7 19.3 0.00 0.00 0.00 66 1018.0
20260503214839 25 197 8.0 16.1 0.00 0.00 0.00 67 1018.1
20260503214330 25 178 8.0 16.1 0.00 0.00 0.00 67 1018.2
20260503213833 25 198 8.0 17.7 0.00 0.00 0.00 67 1018.2
20260503213321 25 111 8.0 17.7 0.00 0.00 0.00 68 1018.2
20260503212830 25 192 9.7 19.3 0.00 0.00 0.00 68 1018.2
20260503212335 25 250 6.4 19.3 0.00 0.00 0.00 68 1018.3
20260503211820 25 150 4.8 16.1 0.00 0.00 0.00 68 1018.4
20260503211327 25 116 8.0 14.5 0.00 0.00 0.00 68 1018.5
20260503210832 25 159 8.0 19.3 0.00 0.00 0.00 69 1018.7
20260503210337 25 212 11.3 19.3 0.00 0.00 0.00 70 1018.8
20260503205823 25 186 6.4 16.1 0.00 0.00 0.00 70 1018.9
20260503205324 25 136 4.8 17.7 0.00 0.00 0.00 70 1018.9
20260503204833 25 150 8.0 22.5 0.00 0.00 0.00 71 1019.1
20260503204317 25 140 12.9 22.5 0.00 0.00 0.00 71 1019.0
20260503203824 25 187 8.0 16.1 0.00 0.00 0.00 71 1019.1
20260503203330 25 254 9.7 14.5 0.00 0.00 0.00 72 1019.2
20260503202833 25 261 3.2 14.5 0.00 0.00 0.00 72 1019.3
20260503202337 25 192 6.4 20.9 0.00 0.00 0.00 72 1019.5
20260503201848 25 161 12.9 20.9 0.00 0.00 0.00 73 1019.6
20260503201330 25 164 8.0 12.9 0.00 0.00 0.00 73 1019.6
20260503200837 25 147 6.4 14.5 0.00 0.00 0.00 74 1019.7
20260503200322 25 229 3.2 9.7 0.00 0.00 0.00 74 1019.7
20260503195829 25 229 3.2 17.7 0.00 0.00 0.00 74 1019.8
20260503195331 25 165 8.0 17.7 0.00 0.00 0.00 75 1019.9
20260503194837 25 171 8.0 16.1 0.00 0.00 0.00 75 1020.0
20260503194322 25 142 6.4 16.1 0.00 0.00 0.00 75 1020.1
20260503193824 25 247 4.8 19.3 0.00 0.00 0.00 76 1020.2
20260503193323 25 232 14.5 19.3 0.00 0.00 0.00 76 1020.2
20260503192839 24 219 8.0 14.5 0.00 0.00 0.00 76 1020.3
20260503192344 24 120 4.8 11.3 0.00 0.00 0.00 77 1020.3
20260503191830 25 246 4.8 19.3 0.00 0.00 0.00 77 1020.5
20260503191336 25 238 12.9 19.3 0.00 0.00 0.00 77 1020.5
20260503190844 25 256 6.4 16.1 0.00 0.00 0.00 78 1020.6
20260503190326 24 126 3.2 11.3 0.00 0.00 0.00 78 1020.7
20260503185831 25 137 4.8 16.1 0.00 0.00 0.00 79 1020.7
20260503185335 25 200 9.7 16.1 0.00 0.00 0.00 79 1020.8
20260503184820 24 158 3.2 14.5 0.00 0.00 0.00 79 1020.8
20260503184328 24 268 8.0 22.5 0.00 0.00 0.00 79 1020.9
20260503183835 24 227 9.7 22.5 0.00 0.00 0.00 80 1021.0
20260503183321 24 265 8.0 17.7 0.00 0.00 0.00 80 1021.0
20260503182828 24 212 11.3 17.7 0.00 0.00 0.00 81 1021.1
20260503182329 23 236 9.7 19.3 0.00 0.00 0.00 81 1021.2
20260503181836 23 184 8.0 16.1 0.00 0.00 0.00 81 1021.3
20260503181349 23 268 9.7 16.1 0.00 0.00 0.00 82 1021.3
20260503180826 23 223 9.7 17.7 0.00 0.00 0.00 82 1021.4
20260503180333 23 215 9.7 17.7 0.00 0.00 0.00 82 1021.5
20260503175820 23 184 8.0 16.1 0.00 0.00 0.00 82 1021.7
20260503175323 23 234 8.0 16.1 0.00 0.00 0.00 83 1021.7
20260503174829 23 230 4.8 20.9 0.00 0.00 0.00 83 1021.8
20260503174334 23 216 8.0 20.9 0.00 0.00 0.00 83 1022.0
20260503173838 23 215 8.0 17.7 0.00 0.00 0.00 84 1022.1
20260503173328 23 217 8.0 16.1 0.00 0.00 0.00 84 1022.2
20260503172833 23 232 4.8 16.1 0.00 0.00 0.00 84 1022.3
20260503172317 23 215 9.7 19.3 0.00 0.00 0.00 84 1022.4
20260503171824 23 144 9.7 19.3 0.00 0.00 0.00 85 1022.4
20260503171326 23 229 6.4 19.3 0.00 0.00 0.00 85 1022.5
20260503170859 23 228 8.0 19.3 0.00 0.00 0.00 85 1022.5
20260503170344 23 252 11.3 16.1 0.00 0.00 0.00 86 1022.6
20260503150822 20 238 9.7 16.1 0.00 0.00 0.00 89 1022.8
20260503150327 20 236 4.8 14.5 0.00 0.00 0.00 89 1022.8
20260503131327 13 218 0.0 6.4 0.00 0.00 0.00 88 1022.3
20260503130859 13 218 3.2 6.4 0.00 0.00 0.00 88 1022.2
20260503130344 13 215 1.6 3.2 0.00 0.00 0.00 87 1022.2